Location: PACMO
(41.3967°N, 90.3760°W)
Time: 06:01:28
(UTC-05:00)

Amateur Radio Satellites - All Passes

Search period start: 23 October 2014 05:31
Search period end: 24 October 2014 05:31
Location: PACMO, 41.3967°N, 90.3760°W

Satellite Date Start Highest point End Downlink Frequencies (MHz)
Time Altitude Azimuth
Uosat F 23 Oct 05:38:30 05:43:35 88° 104° (ESE) 05:48:38 435.120 FM
PCSat 23 Oct 05:48:55 05:53:43 31° 310° (NW) 05:58:33 145.825 MHz
JAS-2 23 Oct 06:00:37 06:08:02 47° 97° (E) 06:15:28 435.800 - 435.900 CW/SSB, 435.910 FM
AO-7 23 Oct 06:19:02 06:27:08 59° 294° (WNW) 06:35:14 29.400 - 29.500 MHz
OPAL 23 Oct 06:19:46 06:23:57 25° 263° (W) 06:28:07 ?
STRAND 1 23 Oct 06:21:31 06:26:12 38° 69° (ENE) 06:30:56 ?
Hamsat 23 Oct 06:29:57 06:33:57 43° 98° (E) 06:37:58 145.90 MHz
RS-15 23 Oct 06:48:53 06:59:37 50° 46° (NE) 07:10:45 29.354 - 29.394 USB, Beacon 29.352 USB
Sapphire 23 Oct 07:14:39 07:15:30 10° 326° (NW) 07:16:22 437.095 MHz 1200 baud AX-25 AFSK
Uosat F 23 Oct 07:19:40 07:21:37 12° 302° (WNW) 07:23:33 435.120 FM
Saudisat 1A 23 Oct 07:27:35 07:30:49 20° 112° (ESE) 07:34:03 436.775 MHz
SO-67 23 Oct 07:29:06 07:31:54 23° 95° (E) 07:34:40 435.3500 MHz FM
JAS-2 23 Oct 07:45:49 07:52:51 41° 294° (WNW) 08:00:00 435.800 - 435.900 CW/SSB, 435.910 FM
STRAND 1 23 Oct 08:01:12 08:05:28 26° 265° (W) 08:09:45 ?
Hamsat 23 Oct 08:06:55 08:09:34 17° 294° (WNW) 08:12:13 145.90 MHz
AO-7 23 Oct 08:14:30 08:18:12 14° 315° (NW) 08:21:54 29.400 - 29.500 MHz
RS-15 23 Oct 09:01:26 09:12:07 53° 248° (WSW) 09:23:15 29.354 - 29.394 USB, Beacon 29.352 USB
SO-67 23 Oct 09:02:13 09:04:44 19° 291° (WNW) 09:07:15 435.3500 MHz FM
HO-68 23 Oct 09:04:15 09:10:11 27° 94° (E) 09:16:03 435.675 MHz FM
Saudisat 1A 23 Oct 09:05:54 09:10:05 43° 309° (NW) 09:14:18 436.775 MHz
PANSAT 23 Oct 09:16:02 09:16:49 11° 172° (S) 09:17:35 not established
MaSat-1 23 Oct 09:17:30 09:19:26 18° 55° (NE) 09:21:15 437.345 MHz
UKube-1 23 Oct 09:33:11 09:34:52 12° 91° (E) 09:36:32 145.840 MHz, 145.915 MHz
FUNcube-1 23 Oct 10:09:58 10:11:15 11° 89° (E) 10:12:32 145.950 - 145.970 MHz USB
Oscar 11 23 Oct 10:14:27 10:18:20 32° 97° (E) 10:22:12 145.825 FM, Beacon 2401.500 USB
HO-68 23 Oct 10:51:13 10:58:15 59° 292° (WNW) 11:05:14 435.675 MHz FM
MaSat-1 23 Oct 10:53:52 10:54:51 12° 255° (WSW) 10:55:49 437.345 MHz
PANSAT 23 Oct 10:54:57 10:56:10 11° 185° (S) 10:57:22 not established
ZACube-1 23 Oct 10:58:45 11:02:49 41° 98° (E) 11:06:46 437.345 MHz
UKube-1 23 Oct 11:07:07 11:11:26 61° 287° (WNW) 11:15:44 145.840 MHz, 145.915 MHz
KITSAT 1 23 Oct 11:25:37 11:31:17 21° 103° (ESE) 11:36:57 435.175 FM
FUNcube-1 23 Oct 11:43:51 11:48:04 60° 286° (WNW) 11:52:11 145.950 - 145.970 MHz USB
Oscar 11 23 Oct 11:50:59 11:54:20 22° 293° (WNW) 11:57:41 145.825 FM, Beacon 2401.500 USB
Sapphire 23 Oct 12:30:31 12:34:47 23° 46° (NE) 12:39:01 437.095 MHz 1200 baud AX-25 AFSK
ZACube-1 23 Oct 12:36:03 12:38:53 18° 295° (WNW) 12:41:40 437.345 MHz
Oscar 19 23 Oct 12:37:49 12:41:41 22° 64° (ENE) 12:45:32 437.125 CW, 437.150 USB
SO-50 23 Oct 12:41:41 12:44:57 20° 111° (ESE) 12:48:17 436.795 FM
HO-68 23 Oct 12:42:11 12:44:28 12° 312° (NW) 12:46:44 435.675 MHz FM
PCSat 23 Oct 12:52:53 12:57:50 34° 51° (NE) 13:02:45 145.825 MHz
AO-27 23 Oct 12:53:13 12:55:37 13° 59° (ENE) 12:58:00 436.795 MHz FM
JAS-1B 23 Oct 12:53:39 12:58:33 28° 65° (ENE) 13:03:16 435.800 - 435.900 CW/SSB
ISS 23 Oct 12:58:28 13:01:15 25° 135° (SE) 13:04:03 145.800 FM
Oscar 10/S400 23 Oct 13:08:31 13:26:15 31° 151° (SSE) 13:43:56 145.825 - 145.975 CW/USB, Beacon 145.810 USB
KITSAT 1 23 Oct 13:17:39 13:25:44 82° 301° (WNW) 13:33:52 435.175 FM
Oscar 16 23 Oct 13:21:51 13:26:53 56° 72° (ENE) 13:31:56 437.025 USB, Beacon 2401.1428
AO-Echo 23 Oct 13:30:25 13:34:44 33° 68° (ENE) 13:39:12 ?
Uribyol 2 23 Oct 13:38:57 13:43:39 35° 68° (ENE) 13:48:23 436.500 FM
ITAMSAT 1 23 Oct 13:44:31 13:49:16 37° 68° (ENE) 13:54:02 435.822 SSB
Gurwin Techsat 1B 23 Oct 13:55:43 14:00:00 26° 65° (ENE) 14:04:18 435.225 FM
TMSAT-1 23 Oct 14:08:05 14:12:17 25° 65° (ENE) 14:16:30 436.925 FM
Sapphire 23 Oct 14:13:16 14:18:37 61° 245° (WSW) 14:23:56 437.095 MHz 1200 baud AX-25 AFSK
UOSAT-12 23 Oct 14:14:25 14:17:17 16° 109° (ESE) 14:20:12 437.025 FM, 437.400 FM
Oscar 19 23 Oct 14:15:43 14:20:41 48° 261° (W) 14:25:40 437.125 CW, 437.150 USB
SO-50 23 Oct 14:20:49 14:25:09 46° 308° (NW) 14:29:37 436.795 FM
AO-27 23 Oct 14:29:10 14:34:23 85° 256° (WSW) 14:39:39 436.795 MHz FM
ISS 23 Oct 14:34:39 14:37:49 40° 331° (NNW) 14:41:01 145.800 FM
PCSat 23 Oct 14:36:19 14:41:14 36° 250° (WSW) 14:46:07 145.825 MHz
JAS-1B 23 Oct 14:43:29 14:49:08 39° 261° (W) 14:54:26 435.800 - 435.900 CW/SSB
Oscar 16 23 Oct 15:03:09 15:06:34 18° 268° (W) 15:10:00 437.025 USB, Beacon 2401.1428
AO-Echo 23 Oct 15:09:21 15:13:30 28° 265° (W) 15:17:48 ?
Uosat F 23 Oct 15:15:41 15:18:37 16° 61° (ENE) 15:21:33 435.120 FM
KITSAT 1 23 Oct 15:16:13 15:22:26 24° 324° (NW) 15:28:41 435.175 FM
Uribyol 2 23 Oct 15:18:39 15:23:08 29° 264° (W) 15:27:39 436.500 FM
ITAMSAT 1 23 Oct 15:24:25 15:28:48 27° 265° (W) 15:33:14 435.822 SSB
AO-7 23 Oct 15:25:47 15:33:28 45° 62° (ENE) 15:41:09 29.400 - 29.500 MHz
Gurwin Techsat 1B 23 Oct 15:34:43 15:39:43 42° 262° (W) 15:44:46 435.225 FM
TMSAT-1 23 Oct 15:46:53 15:51:55 44° 261° (W) 15:57:00 436.925 FM
UOSAT-12 23 Oct 15:52:22 15:56:56 59° 306° (NW) 16:01:37 437.025 FM, 437.400 FM
Saudisat 1A 23 Oct 15:53:25 15:56:46 21° 43° (NE) 16:00:05 436.775 MHz
ISS 23 Oct 16:13:04 16:15:11 16° 351° (N) 16:17:19 145.800 FM
JAS-2 23 Oct 16:15:11 16:19:11 19° 56° (NE) 16:23:29 435.800 - 435.900 CW/SSB, 435.910 FM
Uosat F 23 Oct 16:51:51 16:56:50 67° 258° (WSW) 17:01:52 435.120 FM
AO-7 23 Oct 17:18:29 17:26:13 43° 260° (W) 17:34:00 29.400 - 29.500 MHz
KITSAT 1 23 Oct 17:19:28 17:21:33 11° 354° (N) 17:23:38 435.175 FM
Hamsat 23 Oct 17:23:27 17:27:10 31° 70° (ENE) 17:30:53 145.90 MHz
Saudisat 1A 23 Oct 17:32:19 17:36:37 52° 242° (WSW) 17:40:54 436.775 MHz
UOSAT-12 23 Oct 17:36:34 17:38:06 11° 327° (NNW) 17:39:39 437.025 FM, 437.400 FM
ISS 23 Oct 17:50:39 17:52:53 17° 11° (NNE) 17:55:07 145.800 FM
JAS-2 23 Oct 17:57:28 18:03:18 78° 257° (WSW) 18:09:59 435.800 - 435.900 CW/SSB, 435.910 FM
OPAL 23 Oct 18:28:22 18:33:23 85° 106° (ESE) 18:38:19 ?
STRAND 1 23 Oct 18:34:02 18:36:01 12° 89° (E) 18:38:00 ?
Hamsat 23 Oct 18:59:54 19:03:09 21° 266° (W) 19:06:23 145.90 MHz
KITSAT 1 23 Oct 19:16:21 19:21:12 17° 26° (NNE) 19:26:03 435.175 FM
ISS 23 Oct 19:26:55 19:30:11 49° 31° (NNE) 19:33:26 145.800 FM
SO-67 23 Oct 19:33:47 19:37:10 58° 260° (W) 19:40:35 435.3500 MHz FM
HO-68 23 Oct 19:34:04 19:39:15 22° 56° (ENE) 19:44:27 435.675 MHz FM
JAS-2 23 Oct 19:49:04 19:49:43 10° 278° (W) 19:50:22 435.800 - 435.900 CW/SSB, 435.910 FM
OPAL 23 Oct 20:09:28 20:11:32 13° 303° (WNW) 20:13:36 ?
STRAND 1 23 Oct 20:10:36 20:15:47 79° 286° (WNW) 20:20:55 ?
UKube-1 23 Oct 20:29:27 20:31:02 12° 61° (ENE) 20:32:39 145.840 MHz, 145.915 MHz
AO-40 23 Oct 20:43:52 22:13:53 15° 110° (ESE) 23:09:25 Beacon 2401.320
ISS 23 Oct 21:04:08 21:06:39 20° 227° (SW) 21:09:09 145.800 FM
FUNcube-1 23 Oct 21:06:46 21:08:22 12° 62° (ENE) 21:09:57 145.950 - 145.970 MHz USB
Oscar 11 23 Oct 21:09:46 21:13:23 27° 68° (ENE) 21:17:01 145.825 FM, Beacon 2401.500 USB
KITSAT 1 23 Oct 21:10:57 21:18:48 51° 51° (NE) 21:26:35 435.175 FM
SO-50 23 Oct 21:12:05 21:16:00 24° 44° (NE) 21:19:57 436.795 FM
RS-15 23 Oct 21:15:25 21:23:49 26° 103° (ESE) 21:32:08 29.354 - 29.394 USB, Beacon 29.352 USB
HO-68 23 Oct 21:19:03 21:26:12 77° 255° (WSW) 21:33:25 435.675 MHz FM
STRAND 1 23 Oct 21:53:06 21:54:05 11° 303° (WNW) 21:55:04 ?
ZACube-1 23 Oct 21:54:56 21:59:08 36° 71° (ENE) 22:03:17 437.345 MHz
UKube-1 23 Oct 22:02:18 22:06:38 71° 258° (WSW) 22:11:00 145.840 MHz, 145.915 MHz
FUNcube-1 23 Oct 22:39:31 22:44:07 78° 258° (WSW) 22:48:40 145.950 - 145.970 MHz USB
UOSAT-12 23 Oct 22:42:40 22:46:02 19° 41° (NE) 22:49:22 437.025 FM, 437.400 FM
Oscar 11 23 Oct 22:45:48 22:49:29 27° 264° (W) 22:53:12 145.825 FM, Beacon 2401.500 USB
SO-50 23 Oct 22:52:07 22:56:50 52° 242° (WSW) 23:01:33 436.795 FM
KITSAT 1 23 Oct 23:06:42 23:13:59 39° 251° (WSW) 23:21:15 435.175 FM
HO-68 23 Oct 23:12:13 23:14:59 12° 273° (W) 23:17:45 435.675 MHz FM
RS-15 23 Oct 23:23:51 23:34:53 81° 304° (WNW) 23:45:53 29.354 - 29.394 USB, Beacon 29.352 USB
ZACube-1 23 Oct 23:32:00 23:35:35 22° 266° (W) 23:39:09 437.345 MHz
UOSAT-12 24 Oct 00:21:58 00:26:39 68° 240° (WSW) 00:31:15 437.025 FM, 437.400 FM
MaSat-1 24 Oct 00:28:35 00:32:47 79° 296° (WNW) 00:36:35 437.345 MHz
Oscar 16 24 Oct 01:34:26 01:38:04 19° 92° (E) 01:41:40 437.025 USB, Beacon 2401.1428
AO-Echo 24 Oct 01:39:42 01:41:11 11° 88° (E) 01:42:39 ?
RS-15 24 Oct 01:40:02 01:49:11 29° 331° (NNW) 01:58:26 29.354 - 29.394 USB, Beacon 29.352 USB
Uribyol 2 24 Oct 01:53:45 01:55:33 12° 89° (E) 01:57:21 436.500 FM
ITAMSAT 1 24 Oct 01:59:09 02:01:22 13° 89° (E) 02:03:34 435.822 SSB
Oscar 10/S400 24 Oct 02:22:30 03:06:39 14° 249° (WSW) 04:20:24 145.825 - 145.975 CW/USB, Beacon 145.810 USB
JAS-1B 24 Oct 02:24:39 02:31:09 52° 101° (E) 02:38:51 435.800 - 435.900 CW/SSB
Oscar 19 24 Oct 02:27:01 02:32:05 60° 101° (E) 02:37:07 437.125 CW, 437.150 USB
AO-27 24 Oct 02:42:29 02:47:15 34° 97° (E) 02:51:57 436.795 MHz FM
Oscar 16 24 Oct 03:12:45 03:17:42 50° 289° (WNW) 03:22:37 437.025 USB, Beacon 2401.1428
Sapphire 24 Oct 03:14:00 03:17:23 17° 104° (ESE) 03:20:46 437.095 MHz 1200 baud AX-25 AFSK
AO-Echo 24 Oct 03:15:15 03:20:35 89° 284° (WNW) 03:25:55 ?
Uribyol 2 24 Oct 03:30:24 03:35:38 82° 285° (WNW) 03:40:49 436.500 FM
AO-7 24 Oct 03:30:57 03:33:06 11° 86° (E) 03:35:15 29.400 - 29.500 MHz
PCSat 24 Oct 03:35:12 03:39:47 29° 109° (ESE) 03:44:23 145.825 MHz
ITAMSAT 1 24 Oct 03:36:11 03:41:26 77° 286° (WNW) 03:46:37 435.822 SSB
Gurwin Techsat 1B 24 Oct 03:50:26 03:55:47 78° 103° (ESE) 04:01:05 435.225 FM
RS-15 24 Oct 03:58:51 04:06:37 21° 7° (N) 04:14:31 29.354 - 29.394 USB, Beacon 29.352 USB
TMSAT-1 24 Oct 04:02:18 04:07:37 74° 103° (ESE) 04:12:54 436.925 FM
OPAL 24 Oct 04:06:20 04:10:02 21° 61° (ENE) 04:13:44 ?
Oscar 19 24 Oct 04:07:36 04:10:56 18° 298° (WNW) 04:14:15 437.125 CW, 437.150 USB
JAS-1B 24 Oct 04:16:01 04:21:34 30° 295° (WNW) 04:27:56 435.800 - 435.900 CW/SSB
AO-27 24 Oct 04:22:08 04:26:39 30° 294° (WNW) 04:31:08 436.795 MHz FM
Sapphire 24 Oct 04:54:50 05:00:12 67° 302° (WNW) 05:05:37 437.095 MHz 1200 baud AX-25 AFSK
AO-Echo 24 Oct 04:56:19 04:58:33 13° 301° (WNW) 05:00:48 ?
Uosat F 24 Oct 04:59:40 05:04:21 37° 98° (E) 05:08:59 435.120 FM
JAS-2 24 Oct 05:07:10 05:12:32 20° 88° (E) 05:17:51 435.800 - 435.900 CW/SSB, 435.910 FM
Uribyol 2 24 Oct 05:12:46 05:14:15 11° 303° (WNW) 05:15:43 436.500 FM
PCSat 24 Oct 05:17:54 05:23:00 41° 307° (NW) 05:28:08 145.825 MHz
ITAMSAT 1 24 Oct 05:18:59 05:20:01 11° 303° (WNW) 05:21:02 435.822 SSB
